Find Iridium Next SV146

NORAD ID: 43254 Int'l Des: 2018-030 Owner: IRIDS Country: US Constellation: Iridium NEXT operational
LEOCIRCULARPOLAR

リアルタイム位置

3D地球を読み込み中...

Iridium Next SV146について

説明を読み込み中...

次回通過

Passes for default location (London). Set your location on the main map for personalized predictions.

高度履歴

Loading altitude history...

軌道要素

1 43254U 18030F 26106.84698322 .00000012 00000-0 -26721-5 0 9994
2 43254 86.3942 316.0835 0002100 85.8597 274.2839 14.34217949421346
Epoch: Apr 16, 2026 • Age: 13 hours

現在のステータス

高度 790.0 km
速度 7.46 km/s
衛星直下点 -31.01°S, 35.53°W
打ち上げ日 Mar 30, 2018
運用期間 8 years
タイプ communications

技術仕様

分類 Payload
質量 860.00 kg
乾燥質量 700.00 kg
総質量 860.00 kg
長さ 3.10 m
直径 1.50 m
スパン 9.40 m
形状 Half Hex Prism+2 pan
製造者 OATKGA
バスタイプ EliteBus
フェーズステータス In Orbit
所有者/国 IRIDS/US

Most Searched